RH
67 70 73 76 79 80 79 79 79 80 84 89 91 89 86 83 80 79 78 77 77 79 82 80 75 66 54 42 33 30 28 27 27 26 25 24 23 22 22 21 21 21
70 73 76 79 81 81 82 82 83 85 89 92 93 91 87 83 81 80 80 81 82 84 86 83 76 66 53 40 33 30 29 28 28 27 26 25 23 22 22 22 23 23
74 76 79 81 83 85 86 86 87 90 92 93 94 92 87 82 81 82 82 84 87 88 85 82 76 63 48 37 33 31 30 30 29 28 26 24 23 23 23 23 24 23
76 77 80 83 86 88 88 89 92 95 94 93 93 91 86 83 83 84 83 86 91 89 84 79 70 54 41 35 33 32 32 31 29 26 24 23 23 23 23 23 23 22
79 80 83 87 90 92 93 94 96 95 93 93 92 89 85 84 85 85 86 89 90 86 80 71 57 43 36 34 34 33 33 30 27 25 24 24 23 23 24 24 22 21
84 87 89 92 95 98 98 97 94 92 93 92 89 86 84 85 85 86 88 90 86 77 66 55 44 37 35 34 34 34 32 29 26 25 25 25 24 24 23 22 22 22
87 90 93 95 97 98 95 92 90 90 90 88 86 85 85 86 88 89 87 82 73 61 49 41 37 36 35 34 34 33 30 28 26 25 26 26 25 24 22 21 22 23
85 88 91 93 93 90 88 87 87 87 86 86 87 87 86 87 89 87 77 65 54 45 39 37 37 36 35 34 33 30 28 27 26 26 26 26 25 23 22 21 21 22
83 86 87 86 85 84 85 87 88 88 88 89 90 90 88 86 80 70 58 49 43 40 38 38 37 37 35 33 30 29 27 26 26 26 25 25 24 22 21 20 20 21
85 86 84 83 83 86 89 92 92 92 93 94 92 88 81 71 60 51 46 43 41 41 41 40 38 36 34 31 29 28 27 26 25 25 24 23 22 21 20 19 19 19
89 88 87 87 90 92 94 96 96 96 95 90 83 72 61 52 47 45 45 44 44 43 42 40 38 36 33 31 30 28 27 26 24 24 23 22 21 20 20 19 19 19
90 91 92 94 96 97 99 99 96 90 81 71 61 53 48 47 46 47 47 46 45 44 42 41 38 35 33 32 31 29 27 25 24 23 22 21 20 20 20 19 19 19
94 95 97 100 102 103 102 94 81 68 58 51 48 47 47 48 48 48 48 47 45 43 42 40 38 36 35 34 31 28 25 24 23 22 21 21 20 20 20 19 19 19
99 102 105 107 106 98 85 69 56 49 46 46 47 48 48 48 48 47 46 45 44 43 41 39 38 37 35 33 29 25 23 22 22 21 21 20 20 20 20 20 19 18
103 109 110 103 89 72 57 48 45 45 46 47 48 48 48 47 46 45 44 44 43 41 40 38 37 35 33 29 25 22 21 21 21 20 20 20 20 20 20 20 19 18
108 106 96 77 60 50 45 44 45 46 46 47 47 46 45 44 44 43 43 42 40 38 37 35 33 31 28 25 21 20 20 20 20 20 19 19 20 20 20 19 18 17
101 83 66 52 46 45 45 45 45 45 46 45 45 44 43 43 42 42 40 38 36 33 31 30 28 27 24 21 19 19 19 20 19 19 19 19 19 19 19 18 17 17
73 57 48 45 45 45 45 45 45 44 44 44 43 43 42 41 40 38 35 32 30 28 26 25 25 24 21 19 18 18 19 18 18 18 19 19 19 18 18 18 17 18
51 46 45 45 45 45 45 44 44 44 43 43 42 41 40 38 35 31 29 26 25 24 23 23 23 22 20 19 18 18 17 17 17 18 19 20 20 19 18 17 17 18
45 44 44 44 44 44 44 44 43 42 42 40 39 37 34 31 28 25 24 22 22 22 21 22 22 21 19 18 17 17 16 16 16 17 19 20 20 20 20 20 19 18
43 44 44 44 43 43 43 42 41 40 39 36 34 31 27 25 23 22 21 21 21 21 21 21 21 20 19 18 17 16 16 16 17 18 19 20 21 21 20 19 18 17
44 44 43 42 42 42 41 40 38 36 33 30 27 25 22 21 21 20 21 21 21 21 21 21 21 20 19 17 16 16 16 16 17 18 20 20 20 19 17 15 14 13
44 43 42 42 41 40 38 36 33 30 27 24 22 21 21 20 20 20 21 20 21 21 21 21 21 20 18 17 16 16 16 17 18 18 19 19 17 15 13 13 12 12
43 42 41 40 38 36 34 31 27 24 22 21 20 20 20 21 20 20 20 21 20 20 20 20 20 19 18 16 16 16 17 17 17 16 16 15 14 12 12 12 13 13
41 40 38 36 34 31 27 24 21 20 20 19 20 20 20 20 20 20 20 20 20 19 19 19 19 19 18 17 16 16 15 14 14 13 13 13 12 11 12 13 14 14
38 36 33 31 28 24 21 20 19 19 19 19 20 20 20 20 20 20 19 19 19 19 19 18 18 18 17 16 14 14 12 12 11 12 12 12 11 12 13 14 15 14
Wind_Speed
81 82 83 84 85 86 88 89 89 90 91 92 94 95 96 97 99 100 102 103 104 105 106 106 106 104 102 100 99 98 96 96 95 95 95 95 95 96 96 97 97 98
82 83 84 85 86 87 89 90 91 91 92 94 96 97 98 99 100 102 103 105 106 107 107 107 107 105 103 101 99 98 97 96 95 96 95 95 95 95 95 96 97 98
82 84 85 85 86 88 89 91 92 93 94 96 97 99 101 101 102 104 105 107 108 108 108 108 107 106 104 101 100 98 97 96 96 96 95 95 94 94 94 95 96 98
83 84 85 86 87 89 90 92 93 95 96 98 99 101 103 104 105 106 107 108 109 109 109 108 107 106 103 101 100 98 97 97 96 96 95 94 94 94 94 95 97 98
83 84 85 86 88 90 92 93 94 96 98 100 102 104 105 106 107 109 110 110 110 110 109 108 107 105 103 101 99 98 98 98 97 96 95 94 94 94 95 96 97 98
84 85 86 87 89 91 93 95 97 99 100 102 104 106 107 108 110 111 111 111 110 109 108 107 106 104 102 100 99 99 99 98 97 96 95 95 95 95 96 96 97 97
84 85 87 89 90 93 95 98 100 101 103 105 107 108 110 110 111 112 112 111 110 109 107 105 104 103 102 100 99 99 99 98 97 96 95 95 96 96 97 96 96 97
84 86 89 91 93 96 98 101 103 104 106 108 109 111 112 112 112 112 112 110 109 108 106 105 104 103 102 101 100 100 99 98 97 96 96 96 96 97 97 96 96 97
88 90 92 95 97 99 101 103 105 107 109 110 111 112 112 112 112 111 110 109 108 107 106 105 104 103 103 102 101 100 99 98 97 97 97 97 97 97 96 96 96 96
92 94 96 98 100 102 104 106 108 110 111 112 112 112 112 111 110 109 108 108 107 106 106 105 105 104 104 103 102 101 100 99 98 98 98 97 97 96 96 96 96 96
96 98 100 102 104 105 107 109 110 111 111 111 111 111 110 109 108 107 107 107 107 106 106 106 106 106 105 104 103 102 101 100 99 99 98 97 96 96 96 96 96 96
100 102 104 105 107 108 109 110 111 111 110 110 109 109 108 107 107 106 107 107 107 107 107 107 107 107 106 105 104 103 102 101 100 99 98 97 96 95 96 96 96 96
104 105 107 108 109 110 110 111 110 109 108 107 107 107 106 106 106 106 107 107 107 107 107 108 108 107 106 105 104 103 102 101 100 99 97 96 96 95 95 95 95 95
107 108 109 110 110 110 110 109 108 107 106 105 105 105 106 106 106 106 106 107 107 107 107 107 107 107 106 105 104 103 101 100 99 98 96 95 95 94 94 94 95 95
109 110 110 110 110 109 109 107 106 105 105 104 104 105 105 105 106 106 106 106 107 107 107 107 106 105 105 104 103 102 100 99 98 97 95 94 93 93 93 94 94 93
111 110 110 110 109 108 107 106 105 105 104 104 105 105 105 105 105 105 106 106 106 106 105 105 104 104 103 103 102 100 98 97 96 95 94 93 92 92 92 93 92 92
111 110 109 108 107 106 106 105 105 105 104 105 105 105 105 105 105 105 105 105 104 104 103 103 102 102 102 101 99 97 96 95 94 93 92 91 91 91 91 91 90 90
110 109 108 107 106 106 105 105 105 105 105 104 104 104 104 104 104 104 103 103 102 102 101 100 100 100 100 98 96 94 93 93 91 90 89 89 89 89 89 88 88 87
108 108 107 106 106 105 105 105 105 104 104 104 104 104 103 103 103 102 101 101 100 99 98 97 97 97 97 95 93 92 91 90 88 86 86 86 86 87 87 87 86 85
107 106 106 106 105 105 105 105 104 104 104 103 103 103 102 101 101 100 99 98 97 96 95 94 94 95 94 92 90 89 88 87 85 83 83 83 83 84 84 85 85 85
106 106 105 105 105 104 104 104 104 103 103 102 101 101 100 99 98 97 96 95 94 93 92 92 92 92 91 90 88 86 85 83 81 81 81 81 81 81 82 82 82 82
106 106 105 104 104 104 103 103 103 102 101 100 99 98 97 96 95 94 93 92 91 91 90 90 90 90 89 87 85 83 82 80 79 79 79 79 79 80 80 80 80 80
106 105 105 104 103 103 103 102 101 100 99 98 97 96 94 93 92 91 90 90 89 89 88 87 87 87 86 84 81 80 79 78 77 77 77 77 78 79 79 79 79 79
106 105 104 103 103 102 102 100 99 98 96 95 94 93 92 91 90 89 88 87 87 86 85 84 84 84 83 81 79 77 76 76 75 75 75 77 78 78 78 78 78 79
105 104 103 102 102 101 99 98 96 95 94 93 92 90 89 88 88 86 85 84 84 83 82 82 81 81 80 78 76 75 74 74 74 74 75 77 78 78 78 78 78 79
104 103 102 101 100 98 96 95 94 93 91 90 89 88 87 86 85 84 82 81 81 80 80 79 78 78 78 77 75 74 74 74 74 75 76 77 77 77 77 76 77 78
Wind_Direction
286 286 286 286 286 287 288 289 290 291 292 293 293 294 294 295 296 296 297 297 298 298 298 298 298 297 296 295 293 291 289 288 286 285 284 283 282 280 279 278 277 276
287 287 286 286 287 287 288 289 291 292 292 292 293 294 294 295 296 296 297 297 297 298 298 298 297 297 296 294 292 291 289 288 287 286 285 284 282 281 280 279 278 277
288 288 287 287 288 288 289 290 291 292 292 293 293 294 295 295 296 296 297 297 297 297 297 297 297 296 295 293 292 291 290 289 288 286 285 285 284 282 281 279 278 277
289 289 289 289 289 290 290 291 292 292 293 293 294 294 295 296 296 296 296 297 297 297 297 297 296 295 294 293 292 291 290 289 288 287 286 286 285 283 282 280 279 277
291 290 290 291 291 291 291 292 292 293 293 294 294 295 295 296 296 296 296 297 297 297 296 296 295 294 293 292 292 291 290 289 288 288 287 287 285 284 283 281 280 279
292 292 292 292 292 292 293 293 293 294 294 295 295 295 296 296 296 296 296 296 296 296 296 295 294 293 293 292 292 291 290 289 289 289 288 287 286 285 283 282 281 281
293 293 293 293 293 293 293 294 294 295 295 295 296 296 296 296 296 296 296 296 296 296 295 294 294 293 293 292 291 291 290 290 290 290 289 288 286 285 284 283 282 281
294 294 294 294 294 294 294 295 295 296 296 296 296 296 296 296 296 296 296 296 296 295 295 294 294 293 293 292 292 291 291 291 290 290 289 288 286 285 285 284 283 281
295 295 294 295 295 295 296 296 296 296 296 296 297 297 297 297 297 297 297 296 296 295 295 295 294 294 293 292 292 292 292 291 291 290 289 288 287 286 285 284 283 282
297 296 296 296 297 297 297 297 297 297 297 297 297 297 297 297 297 297 296 296 296 296 295 295 294 294 293 293 293 293 292 292 291 290 289 288 287 286 285 284 283 282
298 298 298 298 298 298 298 298 298 298 298 298 298 298 298 297 297 297 296 296 296 296 295 295 295 294 294 294 294 293 292 292 291 290 289 288 288 287 286 285 284 283
300 300 300 300 300 299 299 299 298 298 298 298 298 298 297 297 297 297 296 296 296 296 295 295 295 295 295 295 294 293 292 292 291 290 290 289 288 287 286 285 285 284
301 301 301 301 300 300 299 299 299 299 299 299 298 298 297 297 297 297 296 296 296 296 295 295 295 295 295 295 294 293 292 292 291 291 290 289 288 288 287 286 285 285
302 302 302 301 301 300 300 299 300 299 299 299 298 298 297 297 297 297 296 296 296 296 295 295 295 295 295 294 293 293 292 292 292 291 290 290 289 288 287 287 286 285
303 302 302 301 300 300 300 300 300 299 299 299 298 298 297 297 297 297 296 296 296 296 295 295 295 295 294 293 293 293 293 292 292 291 290 290 289 289 288 287 286 286
303 303 302 301 301 301 301 300 300 300 299 299 299 298 298 298 297 297 297 296 296 296 295 295 295 294 293 293 293 293 293 292 292 291 291 291 290 289 288 287 287 287
303 302 302 301 301 301 301 301 301 300 300 299 299 299 298 298 298 297 297 297 296 296 295 295 294 294 293 293 293 293 293 292 292 291 291 291 290 289 288 288 287 287
303 302 302 302 302 302 301 301 301 301 300 300 300 299 299 298 298 298 297 297 296 295 295 294 294 293 293 293 293 293 292 292 292 292 292 291 290 289 288 288 287 287
302 302 302 302 302 302 302 302 301 301 301 300 300 300 299 299 298 298 297 296 296 295 295 294 294 293 293 293 293 293 292 292 292 292 292 291 290 289 289 288 288 287
303 303 303 303 303 302 302 302 302 301 301 301 300 300 299 299 298 297 296 296 296 295 295 295 294 294 293 294 293 293 293 293 293 292 291 290 289 289 289 289 289 288
304 303 303 303 303 303 302 302 302 302 301 301 300 300 299 298 298 297 297 296 296 295 295 295 294 294 294 294 294 293 293 293 293 292 291 290 289 289 288 288 288 288
304 304 304 304 303 303 303 303 302 302 301 301 300 299 299 298 298 297 297 297 296 296 296 296 295 294 294 294 294 294 294 294 293 292 291 290 290 288 288 288 288 288
305 304 304 304 304 304 303 303 302 302 301 300 300 299 299 299 298 298 298 298 297 297 296 296 296 295 295 295 295 295 294 294 293 292 291 290 289 289 289 290 290 290
305 305 305 304 304 304 303 303 302 302 301 301 300 300 300 299 299 299 299 298 298 297 297 296 296 295 295 295 295 295 295 294 293 292 292 291 290 290 291 292 292 292
305 305 305 305 304 303 303 302 302 302 301 301 301 301 301 300 300 300 299 299 298 298 297 297 296 296 296 296 296 295 294 293 293 293 292 291 291 292 293 293 293 292
305 305 305 304 304 303 303 303 303 302 302 302 302 302 301 301 300 300 299 299 299 298 297 297 296 296 296 296 296 295 294 294 293 293 292 292 293 294 294 294 293 291